{"data":{"norad_id":45697,"intl_designator":"2020-035AS","name":"STARLINK-1351","alt_names":[],"object_type":"PAYLOAD","status":"ACTIVE","operator":null,"country":"US","launch_date":"2020-06-04","launch_site_code":"AFETR","launch_vehicle":null,"mission":null,"orbit_class":"UNKNOWN","rcs_meters":null,"size_class":null,"mass_kg":null,"dimensions":null,"purposes":["comms"],"wikipedia_slug":null,"has_3d_model":false,"image_url":null,"decayed_at":null,"tle_current":{"epoch":"2026-09-20T01:30:45.764352Z","epoch_age_seconds":63419,"freshness":"FRESH","line1":"1 45697U 20035AS  26263.06302968  .00060606  00000+0  34931-3 0  9994","line2":"2 45697  53.0354 145.5518 0005374 116.4850 243.6722 15.78106809349834","mean_motion":15.78106809,"eccentricity":0.0005374,"inclination_deg":53.0354,"raan_deg":145.5518,"arg_perigee_deg":116.485,"mean_anomaly_deg":243.6722,"bstar":0.00034931,"rev_number":34983,"period_min":91.248576572107,"perigee_km":332.19683030464,"apogee_km":339.41297506164,"semimajor_km":6713.9419026831,"source":"CELESTRAK","updated_at":"2026-09-20T09:00:38.453721Z"}}}